User: anonymous   Login
Location: Hopkins Observatory
(42.6965°N, 73.1843°W)
Time: 23:34:59
(UTC-04:00)
Language:

RS-15 - Orbit

View from above orbital plane
View from above orbital plane
View from above satellite
View from above satellite

Ground track
Ground track

The orbit data is extracted from the following two-line orbital elements,

1 23439U 94085A   16125.93079313 -.00000033 +00000-0 +28060-3 0  9993
2 23439 064.8167 159.4942 0164979 315.3630 043.4108 11.27565266879540
Epoch (UTC): 04 May 2016 22:20:20
Eccentricity: 0.0164979
inclination: 64.8167°
perigee height: 1884 km
apogee height: 2161 km
right ascension of ascending node: 159.4942°
argument of perigee: 315.3630°
revolutions per day: 11.27565266
mean anomaly at epoch: 43.4108°
orbit number at epoch: 87954

The dashed part of the orbit path shows where the satellite is in the earth's shadow,  

DLR